Regional Weather Roundup
Issued by NWS Goodland, KS

Home | Current Version | Previous Version | Graphics & Text | Print | Product List | Glossary On
Versions: 1 2 3 4 5 6 7 8 9 10 11 12 13 14 15 16 17 18 19 20 21 22 23 24 25 26 27 28 29 30 31 32 33 34 35 36 37 38 39 40 41 42 43 44 45 46 47 48 49 50
000
ASUS43 KGLD 220608
RWRGLD

GOODLAND FORECAST AREA HOURLY WEATHER ROUNDUP
NATIONAL WEATHER SERVICE GOODLAND KS
1200 AM MDT MON SEP 22 2014

...OFFICIAL OBSERVATIONS...

CITY           SKY/WX    TMP DP  RH WIND       PRES   REMARKS
GOODLAND KS    CLOUDY    61  42  49 SE12      30.32F
HILL CITY KS   PTCLDY    54  45  71 CALM      30.31S
IMPERIAL NEB   MOCLDY    59  41  51 SE8       30.30F
MCCOOK NEB     CLOUDY    58  44  60 E3        30.31S
AKRON CO       CLOUDY    60  41  49 SE13      30.32S
BURLINGTON CO  CLOUDY    59  39  47 SE9       30.33F
LIMON CO       PTCLDY    53  39  59 SE9       30.36F
$$

...UNOFFICIAL OBSERVATIONS...

CITY           SKY/WX    TMP DP  RH WIND       PRES   REMARKS
COLBY KS       CLOUDY    61  46  59 SE7       30.32F
GOVE KS          N/A     56  32  40 MISG        N/A
NORTON KS      PTCLDY    54  37  54 E3        30.30
SHARON SPRINGS   N/A     55  45  68 SE8         N/A
TRIBUNE KS     PTCLDY    57  46  67 SE9       30.34F
WAKEENEY KS      N/A     58  36  43 MISG        N/A
TRENTON NEB      N/A     60  32  34 CALM        N/A
KIT CARSON CO    N/A     59  39  47 N5          N/A
YUMA CO          N/A     61  43  50 SE8         N/A
$$


USA.gov is the U.S. government's official web portal to all federal, state and local government web resources and services.